Flag for U.S.A. Weather past 2 weeks in San Angelo, Texas, U.S.A.

Now
68 °F

Sunny.


Feels Like: 68 °F
Forecast: 60 / 89 °F
Wind: No wind

Location: Mathis Field

Current Time: Oct 25, 2014 at 11:08:27 AM

Latest Report: Oct 25, 2014 at 9:51 AM


Visibility: 10 mi

Pressure: 30.16 "Hg

Humidity: 70%

Dew point: 58 °F

Location of San AngeloLocation

Historic Weather in San Angelo — Graph

°F

San Angelo temperature yesterday

Maximum temperature yesterday: 87 °F (at 2:51 PM)
Minimum temperature yesterday: 54 °F (at 5:01 AM)
Average temperature yesterday: 70 °F

Past Weeks' High & Low Weather Summary

 TemperatureHumidityPressure
High94 °F (Oct 16, 4:51 PM)100% (Oct 24, 5:01 AM)30.23 "Hg (Oct 24, 5:01 AM)
Low42 °F (Oct 15, 6:51 AM)13% (Oct 16, 3:51 PM)29.59 "Hg (Oct 13, 12:51 AM)
Average67 °F60%30.00 "Hg
* Reported Oct 10 9:51 AM — Oct 25 9:51 AM, San Angelo, Weather by CustomWeather, © 2014

Note: Actual official high and low records may vary slightly from our data, if they occured in-between our weather recording intervals... More about our weather records

Advertising

San Angelo weather history for previous 24 hours

 ConditionsComfort  
Time TempWeatherWind HumidityBarometerVisibility
9:51 AM
Oct 25
68 °FSunny.No wind70%30.16 "Hg10 mi
8:51 AM60 °FClear.3 mph86%30.14 "Hg10 mi
7:51 AM56 °FClear.3 mph90%30.12 "Hg10 mi
6:51 AM57 °FClear.3 mph90%30.11 "Hg10 mi
5:51 AM57 °FClear.6 mph90%30.09 "Hg10 mi
4:51 AM60 °FClear.5 mph86%30.09 "Hg10 mi
3:51 AM60 °FClear.No wind86%30.09 "Hg10 mi
2:51 AM62 °FClear.5 mph80%30.09 "Hg10 mi
1:51 AM65 °FClear.7 mph76%30.09 "Hg10 mi
12:51 AM66 °FClear.8 mph73%30.09 "Hg10 mi
11:51 PM
Oct 24
68 °FClear.8 mph65%30.09 "Hg10 mi
10:51 PM70 °FClear.9 mph59%30.09 "Hg10 mi
9:51 PM68 °FClear.8 mph59%30.08 "Hg10 mi
8:51 PM72 °FClear.7 mph52%30.08 "Hg10 mi
7:51 PM77 °FSunny.7 mph44%30.07 "Hg10 mi
6:51 PM82 °FSunny.5 mph34%30.04 "Hg10 mi
5:51 PM87 °FSunny.6 mph28%30.03 "Hg10 mi
4:51 PM87 °FSunny.7 mph29%30.03 "Hg10 mi
3:51 PM87 °FSunny.7 mph30%30.03 "Hg10 mi
2:51 PM87 °FSunny.10 mph31%30.05 "Hg10 mi
1:51 PM85 °FSunny.9 mph36%30.09 "Hg10 mi
12:51 PM83 °FSunny.10 mph43%30.12 "Hg10 mi
11:51 AM79 °FSunny.13 mph50%30.14 "Hg10 mi
Weather by CustomWeather, © 2014

See weather overviewHow to use our weather pages